Time,TemperatureF,DewpointF,PressureIn,WindDirection,WindDirectionDegrees,WindSpeedMPH,WindSpeedGustMPH,Humidity,HourlyPrecipIn,Conditions,Clouds,dailyrainin,SolarRadiationWatts/m^2,SoftwareType,DateUTC
2013-04-23 00:11:00,73.0,35.0,-100.00,South,169,6.0,11.0,25,0.00,,,0.00,0.000000,,2013-04-23 07:11:00,
2013-04-23 00:21:00,73.0,35.0,-100.00,South,169,6.0,11.0,25,0.00,,,0.00,0.000000,,2013-04-23 07:21:00,
2013-04-23 00:32:00,73.0,35.0,-100.00,South,169,6.0,11.0,25,0.00,,,0.00,0.000000,,2013-04-23 07:32:00,
2013-04-23 00:42:00,73.0,35.0,-100.00,South,169,6.0,11.0,25,0.00,,,0.00,0.000000,,2013-04-23 07:42:00,
2013-04-23 01:11:00,71.0,37.0,-100.00,SSE,155,7.0,14.0,29,0.00,,,0.00,0.000000,,2013-04-23 08:11:00,
2013-04-23 01:21:00,71.0,37.0,-100.00,SSE,155,7.0,14.0,29,0.00,,,0.00,0.000000,,2013-04-23 08:21:00,
2013-04-23 01:31:00,71.0,37.0,-100.00,SSE,155,7.0,14.0,29,0.00,,,0.00,0.000000,,2013-04-23 08:31:00,
2013-04-23 01:42:00,71.0,37.0,-100.00,SSE,155,7.0,14.0,29,0.00,,,0.00,0.000000,,2013-04-23 08:42:00,
2013-04-23 02:11:00,70.0,35.0,-100.00,SE,140,5.0,10.0,28,0.00,,,0.00,0.000000,,2013-04-23 09:11:00,
2013-04-23 02:21:00,70.0,35.0,-100.00,SE,140,5.0,10.0,28,0.00,,,0.00,0.000000,,2013-04-23 09:21:00,
2013-04-23 02:32:00,70.0,35.0,-100.00,SE,140,5.0,10.0,28,0.00,,,0.00,0.000000,,2013-04-23 09:32:00,
2013-04-23 02:42:00,70.0,35.0,-100.00,SE,140,5.0,10.0,28,0.00,,,0.00,0.000000,,2013-04-23 09:42:00,
2013-04-23 03:13:00,70.0,34.0,-100.00,SSE,160,7.0,10.0,26,0.00,,,0.00,0.000000,,2013-04-23 10:13:00,
2013-04-23 03:22:00,70.0,34.0,-100.00,SSE,160,7.0,10.0,26,0.00,,,0.00,0.000000,,2013-04-23 10:22:00,
2013-04-23 03:32:00,70.0,34.0,-100.00,SSE,160,7.0,10.0,26,0.00,,,0.00,0.000000,,2013-04-23 10:32:00,
2013-04-23 03:42:00,70.0,34.0,-100.00,SSE,160,7.0,10.0,26,0.00,,,0.00,0.000000,,2013-04-23 10:42:00,
2013-04-23 04:12:00,69.0,36.0,-100.00,SSE,165,7.0,12.0,30,0.00,,,0.00,0.000000,,2013-04-23 11:12:00,
2013-04-23 04:21:00,69.0,36.0,-100.00,SSE,165,7.0,12.0,30,0.00,,,0.00,0.000000,,2013-04-23 11:21:00,
2013-04-23 04:32:00,69.0,36.0,-100.00,SSE,165,7.0,12.0,30,0.00,,,0.00,0.000000,,2013-04-23 11:32:00,
2013-04-23 04:42:00,69.0,36.0,-100.00,SSE,165,7.0,12.0,30,0.00,,,0.00,0.000000,,2013-04-23 11:42:00,
2013-04-23 05:12:00,65.0,37.0,-100.00,SSW,193,4.0,11.0,35,0.00,,,0.00,0.000000,,2013-04-23 12:12:00,
2013-04-23 05:22:00,65.0,37.0,-100.00,SSW,193,4.0,11.0,35,0.00,,,0.00,0.000000,,2013-04-23 12:22:00,
2013-04-23 05:32:00,65.0,37.0,-100.00,SSW,193,4.0,11.0,35,0.00,,,0.00,0.000000,,2013-04-23 12:32:00,
2013-04-23 05:41:00,65.0,37.0,-100.00,SSW,193,4.0,11.0,35,0.00,,,0.00,0.000000,,2013-04-23 12:41:00,
2013-04-23 06:11:00,60.0,37.0,-100.00,West,261,3.0,6.0,43,0.00,,,0.00,0.000000,,2013-04-23 13:11:00,
2013-04-23 06:21:00,60.0,37.0,-100.00,West,261,3.0,6.0,43,0.00,,,0.00,0.000000,,2013-04-23 13:21:00,
2013-04-23 07:11:00,61.0,41.0,-100.00,NNW,334,6.0,7.0,47,-99.99,,,0.00,43.000000,,2013-04-23 14:11:00,
2013-04-23 07:22:00,61.0,41.0,-100.00,NNW,334,6.0,7.0,47,-99.99,,,0.00,43.000000,,2013-04-23 14:22:00,
2013-04-23 07:31:00,61.0,41.0,-100.00,NNW,334,6.0,7.0,47,-99.99,,,0.00,43.000000,,2013-04-23 14:31:00,
2013-04-23 07:42:00,61.0,41.0,-100.00,NNW,334,6.0,7.0,47,-99.99,,,0.00,43.000000,,2013-04-23 14:42:00,
2013-04-23 08:12:00,72.0,36.0,-100.00,North,0,7.0,11.0,27,0.00,,,0.00,253.000000,,2013-04-23 15:12:00,
2013-04-23 08:21:00,72.0,36.0,-100.00,North,0,7.0,11.0,27,0.00,,,0.00,253.000000,,2013-04-23 15:21:00,
2013-04-23 08:32:00,72.0,36.0,-100.00,North,0,7.0,11.0,27,0.00,,,0.00,253.000000,,2013-04-23 15:32:00,
2013-04-23 08:42:00,72.0,36.0,-100.00,North,0,7.0,11.0,27,0.00,,,0.00,253.000000,,2013-04-23 15:42:00,
2013-04-23 09:12:00,78.0,23.0,-100.00,North,351,15.0,24.0,13,0.00,,,0.00,474.000000,,2013-04-23 16:12:00,
2013-04-23 09:23:00,78.0,23.0,-100.00,North,351,15.0,24.0,13,0.00,,,0.00,474.000000,,2013-04-23 16:23:00,
2013-04-23 09:33:00,78.0,23.0,-100.00,North,351,15.0,24.0,13,0.00,,,0.00,474.000000,,2013-04-23 16:33:00,
2013-04-23 09:42:00,78.0,23.0,-100.00,North,351,15.0,24.0,13,0.00,,,0.00,474.000000,,2013-04-23 16:42:00,
2013-04-23 10:11:00,81.0,22.0,-100.00,NNW,339,18.0,31.0,11,0.00,,,0.00,705.000000,,2013-04-23 17:11:00,
2013-04-23 10:22:00,81.0,22.0,-100.00,NNW,339,18.0,31.0,11,0.00,,,0.00,705.000000,,2013-04-23 17:22:00,
2013-04-23 10:32:00,81.0,22.0,-100.00,NNW,339,18.0,31.0,11,0.00,,,0.00,705.000000,,2013-04-23 17:32:00,
2013-04-23 10:42:00,81.0,22.0,-100.00,NNW,339,18.0,31.0,11,0.00,,,0.00,705.000000,,2013-04-23 17:42:00,
2013-04-23 11:12:00,83.0,18.0,-100.00,NNW,338,18.0,33.0,9,0.00,,,0.00,897.000000,,2013-04-23 18:12:00,
2013-04-23 11:22:00,83.0,18.0,-100.00,NNW,338,18.0,33.0,9,0.00,,,0.00,897.000000,,2013-04-23 18:22:00,
2013-04-23 11:32:00,83.0,18.0,-100.00,NNW,338,18.0,33.0,9,0.00,,,0.00,897.000000,,2013-04-23 18:32:00,
2013-04-23 11:42:00,83.0,18.0,-100.00,NNW,338,18.0,33.0,9,0.00,,,0.00,897.000000,,2013-04-23 18:42:00,
2013-04-23 12:11:00,86.0,15.0,-100.00,NNW,341,15.0,27.0,7,0.00,,,0.00,1042.000000,,2013-04-23 19:11:00,
2013-04-23 12:21:00,86.0,15.0,-100.00,NNW,341,15.0,27.0,7,0.00,,,0.00,1042.000000,,2013-04-23 19:21:00,
2013-04-23 12:32:00,86.0,15.0,-100.00,NNW,341,15.0,27.0,7,0.00,,,0.00,1042.000000,,2013-04-23 19:32:00,
2013-04-23 12:42:00,86.0,15.0,-100.00,NNW,341,15.0,27.0,7,0.00,,,0.00,1042.000000,,2013-04-23 19:42:00,
2013-04-23 13:11:00,87.0,16.0,-100.00,NNW,333,15.0,23.0,7,0.00,,,0.00,1106.000000,,2013-04-23 20:11:00,
2013-04-23 13:21:00,87.0,16.0,-100.00,NNW,333,15.0,23.0,7,0.00,,,0.00,1106.000000,,2013-04-23 20:21:00,
2013-04-23 13:31:00,87.0,16.0,-100.00,NNW,333,15.0,23.0,7,0.00,,,0.00,1106.000000,,2013-04-23 20:31:00,
2013-04-23 13:41:00,87.0,16.0,-100.00,NNW,333,15.0,23.0,7,0.00,,,0.00,1106.000000,,2013-04-23 20:41:00,
2013-04-23 14:11:00,89.0,13.0,-100.00,NNW,338,14.0,24.0,6,0.00,,,0.00,1092.000000,,2013-04-23 21:11:00,
2013-04-23 14:21:00,89.0,13.0,-100.00,NNW,338,14.0,24.0,6,0.00,,,0.00,1092.000000,,2013-04-23 21:21:00,
2013-04-23 14:32:00,89.0,13.0,-100.00,NNW,338,14.0,24.0,6,0.00,,,0.00,1092.000000,,2013-04-23 21:32:00,
2013-04-23 14:43:00,89.0,13.0,-100.00,NNW,338,14.0,24.0,6,0.00,,,0.00,1092.000000,,2013-04-23 21:43:00,
2013-04-23 15:12:00,88.0,13.0,-100.00,North,352,13.0,20.0,6,0.00,,,0.00,1013.000000,,2013-04-23 22:12:00,
2013-04-23 15:22:00,88.0,13.0,-100.00,North,352,13.0,20.0,6,0.00,,,0.00,1013.000000,,2013-04-23 22:22:00,
2013-04-23 15:33:00,88.0,13.0,-100.00,North,352,13.0,20.0,6,0.00,,,0.00,1013.000000,,2013-04-23 22:33:00,
2013-04-23 15:42:00,88.0,13.0,-100.00,North,352,13.0,20.0,6,0.00,,,0.00,1013.000000,,2013-04-23 22:42:00,
2013-04-23 16:12:00,89.0,4.0,-100.00,North,7,11.0,19.0,4,0.00,,,0.00,846.000000,,2013-04-23 23:12:00,
2013-04-23 16:22:00,89.0,4.0,-100.00,North,7,11.0,19.0,4,0.00,,,0.00,846.000000,,2013-04-23 23:22:00,
2013-04-23 16:31:00,89.0,4.0,-100.00,North,7,11.0,19.0,4,0.00,,,0.00,846.000000,,2013-04-23 23:31:00,
2013-04-23 16:42:00,89.0,4.0,-100.00,North,7,11.0,19.0,4,0.00,,,0.00,846.000000,,2013-04-23 23:42:00,
2013-04-23 17:11:00,89.0,9.0,-100.00,NNE,12,9.0,18.0,5,0.00,,,-99.99,633.000000,,2013-04-24 00:11:00,
2013-04-23 17:21:00,89.0,9.0,-100.00,NNE,12,9.0,18.0,5,0.00,,,-99.99,633.000000,,2013-04-24 00:21:00,
2013-04-23 17:32:00,89.0,9.0,-100.00,NNE,12,9.0,18.0,5,0.00,,,-99.99,633.000000,,2013-04-24 00:32:00,
2013-04-23 17:41:00,89.0,9.0,-100.00,NNE,12,9.0,18.0,5,0.00,,,-99.99,633.000000,,2013-04-24 00:41:00,
2013-04-23 18:11:00,88.0,9.0,-100.00,NNE,13,10.0,18.0,5,0.00,,,0.00,393.000000,,2013-04-24 01:11:00,
2013-04-23 18:21:00,88.0,9.0,-100.00,NNE,13,10.0,18.0,5,0.00,,,0.00,393.000000,,2013-04-24 01:21:00,
2013-04-23 18:32:00,88.0,9.0,-100.00,NNE,13,10.0,18.0,5,0.00,,,0.00,393.000000,,2013-04-24 01:32:00,
2013-04-23 18:42:00,88.0,9.0,-100.00,NNE,13,10.0,18.0,5,0.00,,,0.00,393.000000,,2013-04-24 01:42:00,
2013-04-23 19:15:00,84.0,16.0,-100.00,North,359,6.0,14.0,8,0.00,,,0.00,154.000000,,2013-04-24 02:15:00,
2013-04-23 19:26:00,84.0,16.0,-100.00,North,359,6.0,14.0,8,0.00,,,0.00,154.000000,,2013-04-24 02:26:00,
2013-04-23 19:35:00,84.0,16.0,-100.00,North,359,6.0,14.0,8,0.00,,,0.00,154.000000,,2013-04-24 02:35:00,
2013-04-23 19:44:00,84.0,16.0,-100.00,North,359,6.0,14.0,8,0.00,,,0.00,154.000000,,2013-04-24 02:44:00,
2013-04-23 20:14:00,74.0,9.0,-100.00,North,5,5.0,10.0,8,0.00,,,0.00,11.000000,,2013-04-24 03:14:00,
2013-04-23 20:25:00,74.0,9.0,-100.00,North,5,5.0,10.0,8,0.00,,,0.00,11.000000,,2013-04-24 03:25:00,
2013-04-23 21:12:00,66.0,19.0,-100.00,NW,325,5.0,7.0,16,-99.99,,,0.00,0.000000,,2013-04-24 04:12:00,
2013-04-23 21:22:00,66.0,19.0,-100.00,NW,325,5.0,7.0,16,-99.99,,,0.00,0.000000,,2013-04-24 04:22:00,
2013-04-23 22:12:00,64.0,17.0,-100.00,NW,319,5.0,7.0,16,-99.99,,,0.00,0.000000,,2013-04-24 05:12:00,
2013-04-23 22:21:00,64.0,17.0,-100.00,NW,319,5.0,7.0,16,-99.99,,,0.00,0.000000,,2013-04-24 05:21:00,
2013-04-23 23:11:00,64.0,14.0,-100.00,NW,318,6.0,8.0,14,-99.99,,,-99.99,0.000000,,2013-04-24 06:11:00,
2013-04-23 23:21:00,64.0,14.0,-100.00,NW,318,6.0,8.0,14,-99.99,,,-99.99,0.000000,,2013-04-24 06:21:00,